Regional Weather Roundup
Issued by NWS

Home | Current Version | Previous Version | Text Only | Print | Product List | Glossary On
Versions: 1 2 3 4 5 6 7 8 9 10 11 12 13 14 15 16 17 18 19 20 21 22 23 24 25 26 27 28 29 30 31 32 33 34 35 36 37 38 39 40 41 42 43 44 45 46 47 48 49 50
000
ASUS43 KBIS 020610
RWRND

NORTH DAKOTA REGIONAL WEATHER ROUNDUP
NATIONAL WEATHER SERVICE BISMARCK ND
100 AM CDT MON MAY 02 2016

NOTE: "FAIR" INDICATES FEW OR NO CLOUDS BELOW 12,000 FEET WITH NO
SIGNIFICANT WEATHER AND/OR OBSTRUCTIONS TO VISIBILITY.


NDZ001>003-009>011-017-020700-
NORTHWEST NORTH DAKOTA

CITY           SKY/WX    TMP DP  RH WIND       PRES   REMARKS
WILLISTON      MOCLDY    49  35  58 W9        30.10F
6HR MIN TEMP:  46; 6HR MAX TEMP:  69;

MINOT          CLOUDY    57  28  33 SW9       30.06F
MINOT AFB      CLEAR     52  30  43 SW7       30.05F
$$

NDZ018>021-031>035-040>046-020700-
SOUTHWEST NORTH DAKOTA

CITY           SKY/WX    TMP DP  RH WIND       PRES   REMARKS
BISMARCK       CLEAR     45  32  60 SW3       30.15F
6HR MIN TEMP:  43; 6HR MAX TEMP:  64;

DICKINSON      CLOUDY    37  29  72 S6        30.13F
GARRISON         N/A     43  31  62 S6        30.10F
6HR MIN TEMP:  40; 6HR MAX TEMP:  63;

HETTINGER ARPT CLEAR     35  28  75 NW6       30.18S
$$

NDZ004>008-012>016-024-026-027-054-020700-
NORTHEAST NORTH DAKOTA

CITY           SKY/WX    TMP DP  RH WIND       PRES   REMARKS
GRAND FORKS    MOCLDY    44  33  65 S6        30.10F
GRND FRKS AFB  MOCLDY    46  29  50 SW5       30.10F
DEVILS LAKE    CLOUDY    51  34  52 SW7       30.10S
$$

NDZ022-023-025-028>030-036>039-047>053-020700-
SOUTHEAST NORTH DAKOTA

CITY           SKY/WX    TMP DP  RH WIND       PRES   REMARKS
FARGO          CLEAR     43  27  53 SE5       30.11F
6HR MIN TEMP:  42; 6HR MAX TEMP:  66;

JAMESTOWN      PTCLDY    43  32  65 S3        30.11F
$$





USA.gov is the U.S. government's official web portal to all federal, state and local government web resources and services.